SL-14 DEB, 45295

Orbit data source: Space-Track

SL-14 DEB, 45295 is space debris in LEO originally from a launch on Thu, 15 Aug 1991 UTC launched from the Plesetsk Missile And Space Complex (PKMTR). Debris objects in space refer to the collection of defunct objects orbiting the Earth. Examples of debris include non-operational satellites, rocket bodies, and fragments generated from explosions, collisions, or faulty payload assembly.

Loading next visibility...
Identifier
45295, 1991-056AH
Orbit
LEO
Country
Flag of CISCIS
Related business
Manufacturer
Unknown
Mission
Spacecraft
Bus & Motor
Unknown
Mass
Unknown
Launch date (UTC)
1991-08-15 (35 years ago)
Launch vehicle
Unknown
Launch site
Plesetsk Missile And Space Complex (PKMTR)
Object type
Payload
Rocket body
Debris
Shape & HBR
Unknown shape, 0.1 m
Radar Cross Section
Small (<0.1 m²)

Expand to show TLE details & history
Last TLE update: 16 hours ago

TLE from 16 hours ago
0 SL-14 DEB
1 45295U 91056AH  26174.72766438  .00000773  00000-0  13767-2 0  9992
2 45295  82.5681  81.2400 0074550 202.5011 157.2850 13.39888044308629
Epoch: 2026-06-23T17:27Z
TLE epoch observation values (Epoch: 2026-06-23T17:27:50.202Z)
Latitude
-0.00005°
Longitude
-92.61426°
Altitude
1,164.1 km
Speed
7.246 km/s
True Right ascension
05h 24m 57s
True Declination
0° 00' 00"
Sunlit
Object was in daylight at epoch
Visualization orbit readout
Latitude
Unknown
Longitude
Unknown
Altitude
Unknown
Speed
Unknown
Apparent Right ascension
Unknown
Apparent Declination
Unknown
Sunlit
N/A
Visualization observer readout
Local Sidereal Time
20:17:53
Azimuth
Unknown
Elevation
Unknown
Doppler factor
Unknown
Orbital elements
Apogee altitude
1,162.709 km
Perigee altitude
1,051.107 km
Semi-major axis
7,485.045 km
Eccentricity
0.00746
Inclination
82.5681°
RAAN
81.24°
Arg. of periapsis
202.5011°
True anomaly
157.61206°
Mean anomaly
157.285°
Eccentric anomaly
157.44881°
Mean motion
3.35159 °/min
Orbital period
107.41 mins
BSTAR
0.0013767
Loading maneuver chart data...
Computing Atmospheric mass density...
Loading historical data...
Loading historical data...
Loading historical data...
Loading historical data...
Loading historical data...
Loading historical data...
Loading historical data...

Documentation

Showing up to 5 results
|